Vorticity
9 7 6 6 7 8 5 9 1 12 9 7 11 2 1 4 13 11 4 -1 -6 1 1 2 3 2 2 8 6 4 8 11 10 4 6 4 2 8 5 4 10 4 6 -14
7 6 7 7 7 4 7 11 8 4 8 10 4 1 18 7 8 4 7 -2 7 7 6 5 2 6 8 6 4 5 5 8 6 5 7 9 8 9 9 14 12 10 0 10
10 8 8 5 4 7 5 6 10 5 12 5 1 -2 7 12 7 5 10 12 0 -2 2 2 4 1 7 8 7 6 3 5 5 5 7 12 5 11 14 13 5 27 9 18
7 13 13 7 5 7 4 5 12 11 13 12 -3 -6 15 1 8 5 2 8 8 11 3 5 5 6 10 5 -1 4 5 2 5 11 8 4 5 14 11 10 31 9 32 14
9 11 8 5 8 -5 2 13 16 10 15 4 -5 -4 23 10 5 12 -1 6 5 6 2 5 11 10 2 1 7 2 1 5 5 5 10 13 3 10 25 18 18 13 22 26
13 12 14 15 3 15 14 25 12 14 9 24 6 6 5 13 1 7 4 -9 -4 3 9 9 10 1 3 8 1 7 10 8 13 2 14 1 13 30 21 23 18 23 17 17
9 26 24 25 12 34 7 39 12 27 1 -3 -11 5 -3 2 16 21 -2 10 9 12 8 9 8 5 8 2 9 8 7 19 7 12 21 12 23 20 23 20 16 18 19 14
16 11 3 -6 5 9 8 -5 20 3 29 18 -17 7 -1 6 -5 5 9 14 7 8 2 4 1 3 4 5 9 14 1 14 25 17 11 20 22 24 23 22 19 15 20 23
29 11 34 11 -9 1 17 20 13 -8 8 28 2 -14 -9 -15 2 19 18 11 8 5 -1 5 7 9 12 12 7 20 25 18 14 22 18 17 10 16 24 24 8 18 14 14
-1 14 3 14 7 4 29 7 39 24 4 -1 3 0 -8 5 17 14 8 1 3 8 9 7 16 12 6 17 21 18 24 17 16 15 13 14 18 23 16 17 21 10 14 17
2 22 9 7 21 11 14 25 -4 13 8 -2 16 26 26 24 18 6 5 5 7 12 19 4 8 17 14 30 16 15 17 18 17 17 19 17 25 17 14 12 10 12 10 8
-18 -1 15 0 16 -11 -11 -9 7 33 13 2 8 13 0 1 2 5 8 15 12 -0 17 20 18 26 22 14 15 18 20 22 19 23 18 15 16 14 12 13 13 13 14 12
13 -6 10 9 4 -2 15 14 6 2 5 12 3 2 1 1 17 16 -1 9 11 22 22 19 14 13 19 16 20 26 26 21 14 17 16 10 13 14 15 10 8 9 9 9
17 -0 18 5 -7 13 13 7 16 11 4 2 5 16 11 -3 11 11 14 20 25 16 12 10 15 23 28 25 16 17 19 15 13 15 16 15 18 13 13 10 12 12 8 12
12 17 11 16 18 13 12 6 1 -1 5 2 10 13 10 15 17 18 18 19 15 14 22 26 23 22 21 21 18 18 14 15 16 17 13 15 14 12 12 13 12 12 12 11
7 8 8 7 3 3 2 3 7 7 6 9 17 17 17 17 19 19 15 20 25 24 20 22 20 18 19 17 17 15 16 14 13 14 14 15 13 16 14 15 16 16 16 14
7 4 4 5 6 7 10 11 9 15 14 16 22 19 22 19 19 23 27 24 23 21 18 19 19 18 19 18 17 17 16 16 15 16 17 18 15 18 15 14 16 16 17 16
9 10 11 11 12 14 14 14 17 20 23 25 21 17 27 24 24 24 22 19 20 20 20 20 21 20 20 19 19 19 19 18 17 17 18 20 24 20 20 18 19 19 19 17
9 10 10 11 14 18 19 23 26 25 16 18 25 24 24 28 20 17 18 17 19 19 21 26 28 27 24 21 18 14 10 8 7 6 4 4 4 6 8 10 13 19 22 21
17 16 15 22 19 30 27 19 14 18 22 26 24 26 17 15 16 24 24 15 7 5 5 6 6 6 8 10 13 14 16 17 20 23 23 23 23 18 17 13 10 8 7 7
26 29 31 32 22 16 18 24 26 26 23 21 13 20 28 32 19 6 3 5 8 11 9 9 9 11 11 9 7 10 12 10 9 9 7 8 9 13 17 19 18 19 19 17
27 21 15 14 22 27 24 25 21 17 28 33 17 7 5 7 8 13 15 10 11 10 11 11 11 11 13 13 12 9 11 11 10 9 11 11 12 9 10 10 8 9 12 16
15 28 27 25 24 27 21 31 20 9 17 18 19 21 17 16 12 12 13 11 12 12 12 15 16 15 14 16 18 16 15 16 16 16 14 12 12 11 9 8 9 11 10 7
24 22 25 27 24 16 17 20 17 15 13 12 13 13 12 15 14 21 21 25 22 19 17 17 17 18 19 19 18 19 20 19 19 19 20 19 19 20 17 13 11 11 13 10
24 31 15 19 19 21 21 18 15 13 11 9 11 21 28 27 24 18 16 12 13 13 13 12 12 10 10 11 12 15 18 21 21 21 20 17 16 16 19 18 18 18 18 17
18 34 26 17 14 11 9 9 12 20 28 33 31 18 10 5 3 2 4 3 3 3 2 3 4 4 4 5 6 7 9 13 16 17 19 19 21 21 18 15 14 16 16 19
25 12 10 9 13 22 25 24 19 13 9 6 3 1 3 3 2 2 3 3 3 3 3 3 4 4 4 3 3 4 6 8 11 13 16 20 20 19 21 22 19 15 13 14
Height
5699 5700 5701 5701 5701 5700 5698 5698 5695 5695 5693 5692 5690 5689 5688 5686 5684 5681 5678 5675 5672 5669 5666 5663 5659 5656 5651 5647 5640 5635 5628 5621 5619 5613 5603 5595 5588 5581 5569 5557 5553 5540 5522 5540
5686 5687 5688 5689 5689 5688 5686 5683 5683 5683 5682 5679 5678 5677 5676 5673 5670 5669 5666 5662 5659 5656 5652 5647 5644 5641 5636 5629 5623 5616 5610 5602 5598 5593 5584 5571 5566 5558 5548 5533 5519 5516 5498 5503
5673 5673 5674 5676 5676 5674 5672 5670 5669 5669 5669 5668 5665 5664 5663 5660 5658 5655 5652 5649 5645 5641 5637 5633 5627 5623 5618 5612 5604 5597 5589 5586 5582 5578 5569 5552 5547 5538 5524 5513 5495 5490 5481 5472
5657 5659 5661 5662 5663 5661 5658 5656 5655 5657 5655 5655 5653 5651 5650 5646 5644 5641 5637 5635 5630 5625 5621 5617 5611 5606 5598 5595 5586 5578 5568 5564 5556 5554 5538 5529 5522 5512 5500 5485 5481 5463 5465 5453
5641 5642 5642 5645 5649 5648 5645 5641 5642 5643 5642 5642 5639 5636 5634 5632 5627 5626 5623 5619 5615 5610 5605 5600 5594 5587 5581 5575 5566 5556 5546 5540 5528 5538 5510 5503 5499 5487 5479 5469 5458 5447 5442 5434
5624 5624 5625 5628 5632 5631 5630 5628 5627 5628 5628 5625 5625 5623 5619 5616 5612 5610 5606 5603 5598 5593 5588 5581 5576 5570 5563 5556 5547 5538 5527 5515 5502 5507 5488 5477 5472 5470 5456 5447 5438 5433 5424 5419
5609 5609 5612 5614 5616 5616 5618 5617 5616 5613 5612 5610 5609 5607 5603 5600 5597 5593 5591 5587 5581 5576 5568 5563 5557 5550 5544 5536 5529 5516 5505 5493 5481 5473 5465 5454 5453 5441 5434 5427 5422 5416 5407 5403
5595 5597 5596 5599 5602 5602 5603 5602 5600 5598 5596 5595 5595 5593 5590 5586 5581 5578 5572 5568 5562 5556 5550 5544 5537 5530 5522 5516 5509 5496 5484 5471 5459 5450 5442 5435 5426 5422 5415 5409 5402 5401 5395 5389
5582 5584 5585 5587 5587 5588 5587 5587 5586 5584 5582 5582 5581 5577 5573 5568 5564 5561 5556 5550 5544 5539 5531 5523 5515 5507 5497 5487 5481 5473 5461 5449 5440 5434 5423 5414 5409 5404 5400 5393 5384 5388 5382 5376
5572 5572 5572 5574 5574 5574 5574 5573 5572 5573 5570 5567 5565 5561 5557 5553 5548 5543 5539 5533 5529 5520 5511 5503 5495 5486 5475 5466 5457 5448 5440 5430 5423 5413 5405 5398 5394 5389 5383 5378 5378 5370 5367 5363
5562 5561 5562 5562 5562 5562 5562 5560 5559 5558 5555 5552 5549 5545 5542 5538 5532 5527 5522 5516 5509 5500 5490 5482 5473 5464 5454 5446 5437 5430 5422 5413 5408 5398 5390 5387 5381 5375 5371 5366 5361 5358 5355 5351
5552 5550 5551 5550 5552 5551 5549 5548 5545 5542 5540 5536 5534 5530 5526 5521 5515 5509 5502 5496 5487 5478 5470 5462 5452 5444 5434 5428 5421 5413 5407 5400 5392 5387 5380 5372 5367 5362 5357 5353 5350 5346 5343 5339
5542 5539 5539 5539 5538 5537 5536 5532 5530 5528 5523 5522 5519 5514 5510 5504 5497 5491 5484 5475 5468 5460 5451 5443 5434 5424 5418 5411 5402 5395 5393 5383 5377 5371 5370 5361 5356 5351 5347 5342 5339 5335 5331 5327
5530 5529 5528 5528 5527 5524 5523 5520 5517 5514 5510 5506 5502 5497 5492 5486 5479 5472 5463 5455 5447 5440 5432 5424 5416 5408 5402 5398 5389 5383 5376 5372 5367 5362 5357 5351 5346 5339 5335 5331 5327 5322 5319 5315
5520 5517 5516 5514 5512 5510 5508 5505 5502 5499 5497 5491 5486 5480 5474 5467 5458 5451 5445 5439 5431 5424 5417 5410 5404 5396 5389 5384 5378 5373 5366 5361 5356 5350 5344 5340 5335 5328 5323 5319 5314 5309 5304 5302
5508 5506 5504 5502 5500 5497 5494 5492 5488 5482 5478 5474 5468 5462 5455 5448 5442 5436 5430 5424 5417 5411 5405 5398 5391 5385 5379 5374 5370 5364 5358 5352 5345 5341 5334 5329 5323 5318 5311 5306 5301 5296 5291 5286
5496 5495 5492 5489 5486 5483 5479 5476 5471 5466 5461 5457 5451 5445 5439 5434 5429 5424 5419 5413 5407 5401 5395 5388 5383 5377 5373 5366 5361 5356 5350 5344 5337 5331 5326 5321 5313 5308 5300 5294 5290 5285 5280 5274
5483 5480 5477 5474 5470 5467 5463 5459 5454 5450 5445 5441 5436 5432 5429 5423 5419 5415 5409 5404 5399 5394 5389 5384 5378 5372 5366 5361 5355 5349 5343 5337 5330 5323 5316 5311 5306 5299 5292 5285 5279 5275 5269 5263
5468 5465 5462 5458 5455 5451 5448 5444 5440 5436 5435 5429 5425 5422 5420 5415 5411 5407 5404 5400 5396 5392 5386 5381 5375 5368 5361 5356 5349 5343 5336 5330 5325 5318 5309 5303 5297 5291 5285 5278 5272 5266 5260 5254
5452 5450 5448 5444 5442 5439 5437 5432 5430 5427 5424 5421 5419 5416 5414 5412 5408 5404 5403 5398 5394 5390 5386 5379 5372 5366 5360 5353 5347 5340 5333 5326 5319 5314 5306 5298 5290 5282 5276 5269 5263 5257 5252 5246
5440 5438 5437 5435 5432 5430 5428 5426 5425 5422 5419 5418 5416 5414 5411 5409 5408 5405 5402 5398 5394 5389 5384 5377 5371 5365 5359 5351 5344 5338 5332 5325 5317 5309 5302 5294 5287 5280 5273 5265 5256 5249 5243 5236
5431 5431 5429 5428 5426 5425 5425 5423 5422 5421 5419 5417 5416 5415 5413 5411 5408 5406 5402 5398 5393 5387 5383 5377 5370 5364 5357 5350 5343 5334 5327 5320 5312 5304 5297 5289 5281 5272 5265 5259 5252 5244 5236 5229
5426 5426 5425 5425 5425 5424 5424 5424 5423 5422 5421 5420 5418 5416 5415 5412 5410 5407 5403 5398 5393 5389 5382 5375 5369 5361 5354 5347 5339 5332 5322 5315 5306 5298 5290 5281 5274 5266 5257 5250 5243 5237 5230 5222
5425 5425 5425 5427 5426 5427 5427 5427 5426 5425 5424 5423 5421 5420 5418 5416 5413 5408 5403 5399 5394 5388 5381 5375 5369 5363 5355 5347 5339 5331 5323 5313 5303 5294 5285 5275 5266 5259 5250 5241 5234 5228 5222 5215
5429 5429 5429 5429 5431 5431 5432 5431 5431 5430 5430 5428 5427 5425 5423 5419 5414 5409 5405 5399 5395 5390 5386 5380 5374 5367 5358 5350 5341 5332 5323 5313 5303 5293 5283 5273 5263 5253 5244 5234 5226 5218 5211 5205
5435 5434 5434 5436 5438 5438 5438 5438 5438 5437 5436 5436 5435 5432 5427 5422 5417 5414 5409 5406 5400 5396 5389 5384 5377 5369 5360 5352 5343 5333 5323 5313 5302 5290 5279 5269 5258 5248 5239 5229 5220 5211 5203 5196
5439 5439 5444 5446 5446 5447 5447 5447 5447 5446 5446 5445 5441 5435 5432 5429 5424 5420 5415 5411 5406 5400 5394 5387 5379 5371 5363 5354 5344 5335 5325 5314 5303 5291 5279 5267 5255 5244 5234 5224 5214 5204 5196 5189